DIWATA 2B (43678 NORAD) Tracking and Keplerian Element Data

This shows tracking and keplerian element data for the satellite.

Feedback or suggestion? Click here.




ElementValue
Catalog43678
NameDIWATA 2B
Epoch Orbit265
Epoch Day320.06289183
Epoch Year2018
RAAN70.5008
Inclination97.8363
Eccentricity0.0008769
Argument of Perigee299.1695
Mean Anonmoly60.8671
Mean Motion14.91503279
Decay Rate-2.37E-06
L11 43678U 18084H 18320.06289183 -.00000237 00000-0 -18002-4 0 9999
L22 43678 97.8363 70.5008 0008769 299.1695 60.8671 14.91503279 2659

Live tracking and technical data element details for DIWATA 2B (NORAD 43678). DIWATA 2B can be tracked NOW for your location showing map with azimuth and elevation plus other details from your city location.

Track the satellite on the map from your city or location and see movement details for azimuth, elevation, latitude, longitude, range, height, and movement on the map or in text.







IsCatalogInMostPopularTable: catalog: 43678, numindb: 7
Update: records affected: 1



GetName: 43678 DIWATA 2B

Hit Count: updated at: Sat, 17 Nov 2018 02:24:42 GMT